Carbondale, IL

10:22 AM CST on February 24, 2018 (GMT -0600)
Southern Illinois

Weather History for KMDH - November, 2011

Change the Weather History Date:

Wednesday, November 9, 2011

  Actual Average Record
Temperature  
Mean Temperature 50 °F -  
Max Temperature 64 °F 59 °F 78 °F (1975)
Min Temperature 35 °F 36 °F 10 °F (1991)
Degree Days  
Heating Degree Days 16    
Moisture  
Dew Point 48 °F    
Average Humidity 80    
Maximum Humidity 94    
Minimum Humidity 58    
Precipitation  
Precipitation 0.14 in - - ()
Sea Level Pressure  
Sea Level Pressure 29.92 in    
Wind  
Wind Speed 12 mph (SW)    
Max Wind Speed 24 mph    
Max Gust Speed 34 mph    
Visibility 8 miles    
Events Rain    
Averages and records for this station are not official NWS values.
T = Trace of Precipitation, MM = Missing Value Source: NWS Daily Summary

Daily Weather History Graph

Daily Weather History Graph

Search for Another Location

Airport or City:

Trip Planner

Search our weather history database for the weather conditions in past years. The results will help you decide how hot, cold, wet, or windy it might be!

Date:

Astronomy

Nov. 09, 2011 Rise Set
Actual Time 6:30 AM CST 4:50 PM CST
Civil Twilight 6:02 AM CST 5:18 PM CST
Nautical Twilight 5:31 AM CST 5:49 PM CST
Astronomical Twilight 5:00 AM CST 6:20 PM CST
Moon 4:02 PM CST (11/9) 5:26 AM CST (11/9)
Length of Visible Light 11h 15m
Length of Day
10h 20m
Waxing Gibbous, 99% of the Moon is Illuminated
Nov 9
Waxing Gibbous
Nov 10
Full
Nov 18
Last Quarter
Nov 25
New
Dec 2
First Quarter

Hourly Weather History & Observations

Time (CST) Temp. Windchill Dew Point Humidity Pressure Visibility Wind Dir Wind Speed Gust Speed Precip Events Conditions
12:13 AM 60.8 °F - 57.2 °F 88% 29.82 in 9.0 mi ESE 12.7 mph - 0.01 in Rain Light Rain
12:37 AM 60.8 °F - 57.2 °F 88% 29.80 in 10.0 mi SSE 15.0 mph - 0.01 in   Overcast
12:52 AM 61.0 °F - 57.9 °F 90% 29.79 in 10.0 mi SE 8.1 mph 17.3 mph 0.01 in   Overcast
1:37 AM 60.8 °F - 57.2 °F 88% 29.78 in 7.0 mi SSE 15.0 mph 21.9 mph 0.01 in Rain Light Rain
1:52 AM 61.0 °F - 57.9 °F 90% 29.77 in 9.0 mi SSE 13.8 mph - 0.02 in Rain Light Rain
2:50 AM 62.6 °F - 60.8 °F 94% 29.75 in 4.0 mi SSW 10.4 mph - 0.05 in Rain Rain
2:52 AM 62.1 °F - 60.1 °F 93% 29.74 in 2.0 mi SW 9.2 mph - 0.10 in Rain Heavy Rain
3:00 AM 62.6 °F - 60.8 °F 94% 29.74 in 1.2 mi South 8.1 mph - 0.10 in Rain Heavy Rain
3:08 AM 62.6 °F - 60.8 °F 94% 29.74 in 3.0 mi South 8.1 mph - 0.11 in Rain Rain
3:15 AM 62.6 °F - 60.8 °F 94% 29.73 in 3.0 mi South 9.2 mph - 0.14 in Rain Rain
3:32 AM 62.6 °F - 60.8 °F 94% 29.74 in 2.0 mi SSW 8.1 mph - 0.16 in Rain Light Rain
3:46 AM 62.6 °F - 60.8 °F 94% 29.74 in 3.0 mi South 8.1 mph - 0.18 in Rain Light Rain
4:04 AM 62.6 °F - 60.8 °F 94% 29.74 in 5.0 mi SSW 13.8 mph - 0.00 in Rain Light Rain
4:09 AM 62.6 °F - 60.8 °F 94% 29.74 in 4.0 mi SW 19.6 mph 24.2 mph 0.01 in Rain Light Rain
4:18 AM 64.4 °F - 60.8 °F 88% 29.74 in 8.0 mi SW 17.3 mph 24.2 mph 0.01 in Rain Light Rain
4:31 AM 62.6 °F - 60.8 °F 94% 29.74 in 10.0 mi SW 15.0 mph - 0.01 in   Overcast
4:52 AM 63.0 °F - 59.0 °F 87% 29.75 in 10.0 mi SW 15.0 mph - 0.01 in   Mostly Cloudy
5:06 AM 62.6 °F - 57.2 °F 82% 29.76 in 10.0 mi SW 17.3 mph 24.2 mph N/A   Mostly Cloudy
5:23 AM 62.6 °F - 55.4 °F 77% 29.78 in 10.0 mi SW 19.6 mph 25.3 mph N/A   Mostly Cloudy
5:52 AM 59.0 °F - 50.0 °F 72% 29.80 in 10.0 mi WSW 24.2 mph 34.5 mph N/A   Partly Cloudy
6:52 AM 54.0 °F - 45.0 °F 72% 29.85 in 10.0 mi WSW 15.0 mph 21.9 mph N/A   Partly Cloudy
8:33 AM 53.6 °F - 42.8 °F 67% 29.92 in 10.0 mi West 17.3 mph 27.6 mph N/A   Overcast
8:52 AM 52.0 °F - 39.9 °F 63% 29.93 in 10.0 mi West 13.8 mph 25.3 mph N/A   Overcast
9:16 AM 51.8 °F - 39.2 °F 62% 29.95 in 10.0 mi West 18.4 mph 26.5 mph N/A   Overcast
9:52 AM 51.1 °F - 39.9 °F 66% 29.98 in 10.0 mi West 15.0 mph 27.6 mph N/A   Overcast
10:52 AM 51.1 °F - 37.9 °F 61% 30.02 in 10.0 mi West 11.5 mph 19.6 mph N/A   Overcast
11:52 AM 48.9 °F - 36.0 °F 61% 30.05 in 10.0 mi West 15.0 mph 27.6 mph N/A   Overcast
12:52 PM 48.9 °F - 36.0 °F 61% 30.08 in 10.0 mi WNW 12.7 mph 26.5 mph N/A   Overcast
1:52 PM 48.0 °F - 35.1 °F 61% 30.09 in 10.0 mi WNW 19.6 mph 28.8 mph N/A   Overcast
2:52 PM 48.0 °F - 35.1 °F 61% 30.12 in 10.0 mi NW 13.8 mph 23.0 mph N/A   Overcast
3:52 PM 48.0 °F - 34.0 °F 58% 30.13 in 10.0 mi NW 16.1 mph 29.9 mph N/A   Overcast
4:52 PM 46.0 °F 43.1 °F 34.0 °F 63% 30.16 in 10.0 mi NW 5.8 mph - N/A   Clear
5:52 PM 44.1 °F - 34.0 °F 68% 30.18 in 10.0 mi Calm Calm - N/A   Clear
6:52 PM 39.0 °F - 34.0 °F 82% 30.19 in 10.0 mi Calm Calm - N/A   Clear
7:52 PM 39.0 °F 36.8 °F 34.0 °F 82% 30.19 in 10.0 mi SW 3.5 mph - N/A   Clear
8:52 PM 37.9 °F - 33.1 °F 83% 30.20 in 10.0 mi Calm Calm - N/A   Clear
9:52 PM 35.1 °F 32.2 °F 32.0 °F 89% 30.20 in 10.0 mi SW 3.5 mph - N/A   Clear
10:52 PM 37.9 °F 34.4 °F 32.0 °F 79% 30.20 in 10.0 mi West 4.6 mph - N/A   Clear
11:52 PM 39.0 °F 34.8 °F 32.0 °F 76% 30.20 in 10.0 mi West 5.8 mph - N/A   Clear